• In Hungary
  • List of Countries
  • For 7 days
  • Water Temperature
  • Satellite Maps
  • Weather Map
  • News
  • Weather Widgets
  • user-avatar
    Login

    Hourly Weather Kadischi

    Today, 16 October, Tuesday

    Time Temperature Precipitation Wind Pressure Humidity
    00:00 +8°C° 0 mm 2 mps 746 mmHg 85%
    01:00 +8°C° 0 mm 2 mps 746 mmHg 85%
    02:00 +7°C° 0 mm 2 mps 746 mmHg 85%
    03:00 +7°C° 0 mm 2 mps 746 mmHg 84%
    04:00 +7°C° 0 mm 2 mps 745 mmHg 84%
    05:00 +7°C° 0 mm 2 mps 745 mmHg 84%
    06:00 +7°C° 0 mm 2 mps 745 mmHg 81%
    07:00 +8°C° 0 mm 3 mps 745 mmHg 78%
    08:00 +8°C° 0 mm 3 mps 745 mmHg 75%
    09:00 +10°C° 0 mm 3 mps 745 mmHg 70%
    10:00 +11°C° 0 mm 3 mps 745 mmHg 65%
    11:00 +13°C° 0 mm 3 mps 745 mmHg 60%
    12:00 +13°C° 0 mm 3 mps 745 mmHg 58%
    13:00 +14°C° 0 mm 3 mps 745 mmHg 57%
    14:00 +16°C° 0 mm 3 mps 744 mmHg 56%
    15:00 +13°C° 0 mm 3 mps 744 mmHg 61%
    16:00 +12°C° 0 mm 3 mps 744 mmHg 67%
    17:00 +12°C° 0 mm 2 mps 744 mmHg 73%
    18:00 +10°C° 0 mm 3 mps 744 mmHg 75%
    19:00 +10°C° 0 mm 3 mps 744 mmHg 77%
    20:00 +10°C° 0 mm 3 mps 744 mmHg 79%
    21:00 +9°C° 0 mm 2 mps 744 mmHg 81%
    22:00 +9°C° 0 mm 2 mps 744 mmHg 84%
    23:00 +8°C° 0 mm 2 mps 744 mmHg 86%

    Tomorrow, 17 October, Wednesday

    Time Temperature Precipitation Wind Pressure Humidity
    00:00 +8°C° 0 mm 2 mps 744 mmHg 88%
    01:00 +8°C° 0 mm 2 mps 745 mmHg 90%
    02:00 +7°C° 0 mm 2 mps 745 mmHg 92%
    03:00 +7°C° 0 mm 2 mps 745 mmHg 92%
    04:00 +8°C° 0 mm 1 mps 744 mmHg 93%
    05:00 +7°C° 0 mm 1 mps 744 mmHg 93%
    06:00 +8°C° 0 mm 1 mps 745 mmHg 91%
    07:00 +8°C° 0 mm 1 mps 745 mmHg 89%
    08:00 +9°C° 0 mm 1 mps 745 mmHg 88%
    09:00 +10°C° 0 mm 1 mps 745 mmHg 81%
    10:00 +12°C° 0 mm 1 mps 745 mmHg 73%
    11:00 +14°C° 0 mm 1 mps 746 mmHg 66%
    12:00 +14°C° 0 mm 1 mps 745 mmHg 65%
    13:00 +15°C° 0 mm 1 mps 745 mmHg 64%
    14:00 +15°C° 0 mm 1 mps 745 mmHg 62%
    15:00 +14°C° 0 mm 1 mps 745 mmHg 69%
    16:00 +13°C° 0 mm 1 mps 745 mmHg 77%
    17:00 +11°C° 0 mm 1 mps 745 mmHg 84%
    18:00 +11°C° 0 mm 1 mps 745 mmHg 86%
    19:00 +10°C° 0 mm 1 mps 745 mmHg 89%
    20:00 +10°C° 0 mm 1 mps 745 mmHg 91%
    21:00 +10°C° 0 mm 1 mps 745 mmHg 92%
    22:00 +9°C° 0 mm 1 mps 745 mmHg 92%
    23:00 +9°C° 0 mm 1 mps 745 mmHg 93%

    Day after tomorrow, 18 October, Thursday

    Time Temperature Precipitation Wind Pressure Humidity
    00:00 +9°C° 0 mm 1 mps 745 mmHg 93%
    01:00 +9°C° 0 mm 1 mps 745 mmHg 94%
    02:00 +7°C° 0 mm 2 mps 745 mmHg 94%
    03:00 +7°C° 0 mm 2 mps 744 mmHg 94%
    04:00 +7°C° 0 mm 2 mps 744 mmHg 94%
    05:00 +7°C° 0 mm 2 mps 744 mmHg 95%
    06:00 +7°C° 0 mm 2 mps 744 mmHg 93%
    07:00 +8°C° 0 mm 2 mps 744 mmHg 92%
    08:00 +8°C° 0 mm 2 mps 744 mmHg 90%
    09:00 +10°C° 0 mm 2 mps 744 mmHg 84%
    10:00 +12°C° 0 mm 2 mps 744 mmHg 79%
    11:00 +14°C° 0 mm 2 mps 743 mmHg 73%
    12:00 +14°C° 0 mm 3 mps 743 mmHg 71%
    13:00 +14°C° 0 mm 3 mps 743 mmHg 69%
    14:00 +16°C° 0 mm 3 mps 743 mmHg 67%
    15:00 +15°C° 0 mm 2 mps 742 mmHg 74%
    16:00 +14°C° 0 mm 2 mps 742 mmHg 81%
    17:00 +12°C° 0 mm 2 mps 742 mmHg 88%
    18:00 +12°C° 0 mm 2 mps 742 mmHg 90%
    19:00 +12°C° 0 mm 2 mps 741 mmHg 92%
    20:00 +10°C° 0 mm 2 mps 741 mmHg 94%
    21:00 +10°C° 0 mm 2 mps 741 mmHg 94%
    22:00 +10°C° 0 mm 2 mps 741 mmHg 94%
    23:00 +9°C° 0 mm 2 mps 741 mmHg 95%

    19 October, Friday

    Time Temperature Precipitation Wind Pressure Humidity
    00:00 +9°C° 0 mm 2 mps 741 mmHg 95%
    01:00 +9°C° 0 mm 2 mps 741 mmHg 95%
    02:00 +8°C° 0 mm 2 mps 741 mmHg 95%
    03:00 +8°C° 0 mm 2 mps 741 mmHg 95%
    04:00 +8°C° 0 mm 2 mps 740 mmHg 95%
    05:00 +8°C° 0 mm 2 mps 740 mmHg 96%
    06:00 +8°C° 0 mm 2 mps 740 mmHg 95%
    07:00 +8°C° 0 mm 2 mps 740 mmHg 94%
    08:00 +8°C° 0 mm 2 mps 740 mmHg 93%
    09:00 +11°C° 0 mm 1 mps 740 mmHg 88%
    10:00 +12°C° 0 mm 1 mps 740 mmHg 83%
    11:00 +13°C° 0 mm 1 mps 741 mmHg 78%
    12:00 +13°C° 0 mm 1 mps 740 mmHg 78%
    13:00 +13°C° 0 mm 2 mps 740 mmHg 77%
    14:00 +13°C° 0 mm 2 mps 740 mmHg 77%
    15:00 +13°C° 0 mm 2 mps 740 mmHg 82%
    16:00 +12°C° 0 mm 2 mps 740 mmHg 86%
    17:00 +10°C° 0 mm 2 mps 740 mmHg 90%
    18:00 +9°C° 0 mm 2 mps 741 mmHg 90%
    19:00 +9°C° 0 mm 2 mps 741 mmHg 90%
    20:00 +8°C° 0 mm 2 mps 741 mmHg 91%
    21:00 +7°C° 0 mm 2 mps 741 mmHg 90%
    22:00 +6°C° 0 mm 2 mps 741 mmHg 90%
    23:00 +6°C° 0 mm 1 mps 741 mmHg 89%

    20 October, Saturday

    Time Temperature Precipitation Wind Pressure Humidity
    00:00 +6°C° 0 mm 1 mps 741 mmHg 88%
    01:00 +5°C° 0 mm 1 mps 741 mmHg 87%
    02:00 +5°C° 0 mm 1 mps 741 mmHg 87%
    03:00 +4°C° 0 mm 1 mps 741 mmHg 88%
    04:00 +4°C° 0 mm 1 mps 741 mmHg 90%
    05:00 +4°C° 0 mm 1 mps 742 mmHg 91%
    06:00 +4°C° 0 mm 1 mps 742 mmHg 90%
    07:00 +4°C° 0 mm 1 mps 742 mmHg 90%
    08:00 +4°C° 0 mm 1 mps 742 mmHg 89%
    09:00 +6°C° 0 mm 1 mps 742 mmHg 83%
    10:00 +7°C° 0 mm 1 mps 742 mmHg 77%
    11:00 +8°C° 0 mm 1 mps 742 mmHg 70%
    12:00 +8°C° 0 mm 1 mps 742 mmHg 69%
    13:00 +9°C° 0 mm 1 mps 741 mmHg 67%
    14:00 +9°C° 0 mm 1 mps 741 mmHg 65%
    15:00 +8°C° 0 mm 1 mps 741 mmHg 71%
    16:00 +7°C° 0 mm 1 mps 741 mmHg 77%
    17:00 +6°C° 0 mm 1 mps 741 mmHg 83%
    18:00 +5°C° 0 mm 1 mps 741 mmHg 84%
    19:00 +5°C° 0 mm 1 mps 740 mmHg 85%
    20:00 +5°C° 0 mm 1 mps 740 mmHg 86%
    21:00 +5°C° 0 mm 1 mps 740 mmHg 87%
    22:00 +5°C° 0 mm 1 mps 740 mmHg 88%
    23:00 +5°C° 0 mm 1 mps 740 mmHg 89%

    21 October, Sunday

    Time Temperature Precipitation Wind Pressure Humidity
    00:00 +4°C° 0 mm 1 mps 740 mmHg 91%
    01:00 +4°C° 0 mm 1 mps 740 mmHg 93%
    02:00 +3°C° 0 mm 1 mps 739 mmHg 95%
    03:00 +3°C° 0 mm 1 mps 739 mmHg 96%
    04:00 +3°C° 0 mm 1 mps 739 mmHg 96%
    05:00 +3°C° 0 mm 1 mps 739 mmHg 97%
    06:00 +3°C° 0 mm 1 mps 739 mmHg 96%
    07:00 +2°C° 0 mm 2 mps 739 mmHg 94%
    08:00 +2°C° 0 mm 2 mps 739 mmHg 93%
    09:00 +4°C° 0 mm 2 mps 739 mmHg 88%
    10:00 +5°C° 0 mm 2 mps 739 mmHg 83%
    11:00 +6°C° 0 mm 2 mps 739 mmHg 78%
    12:00 +6°C° 0 mm 2 mps 739 mmHg 79%
    13:00 +5°C° 0 mm 3 mps 739 mmHg 79%
    14:00 +5°C° 0 mm 3 mps 739 mmHg 80%
    15:00 +6°C° 0 mm 2 mps 739 mmHg 82%
    16:00 +5°C° 0 mm 2 mps 739 mmHg 85%
    17:00 +5°C° 0 mm 2 mps 739 mmHg 88%
    18:00 +4°C° 0 mm 2 mps 739 mmHg 90%
    19:00 +4°C° 0 mm 2 mps 739 mmHg 91%
    20:00 +4°C° 0 mm 1 mps 739 mmHg 93%
    21:00 +3°C° 0 mm 2 mps 739 mmHg 93%
    22:00 +3°C° 0 mm 2 mps 739 mmHg 93%
    23:00 +3°C° 0 mm 2 mps 738 mmHg 93%
    Show more